Regional Weather Roundup
Issued by NWS Grand Forks, ND

Home | Current Version | Previous Version | Text Only | Print | Product List | Glossary Off
Versions: 1 2 3 4 5 6 7 8 9 10 11 12 13 14 15 16 17 18 19 20 21 22 23 24 25 26 27 28 29 30 31 32 33 34 35 36 37 38 39 40 41 42 43 44 45 46 47 48 49 50

000
ASUS43 KFGF 021310
RWRFGF
PRAIRIE TO PINES  WEATHER ROUNDUP
NATIONAL WEATHER SERVICE EASTERN NORTH DAKOTA/GRAND FORKS ND
800 AM CDT THU OCT 02 2014

 **SATELLITE DATA USED TO AUGMENT SKY COVER AT AUTOMATED STATIONS**
 *****  WEATHER ACROSS EASTERN NORTH DAKOTA  *****

CITY           SKY/WX    TMP DP  RH WIND       PRES   REMARKS
GRAND FORKS    CLOUDY    50  47  89 SW5       29.81S
GRAND FRKS AFB CLOUDY    48  48  99 SW3       29.82S
GRAND FRKS NWS   N/A     48 N/A N/A W1          N/A
DEVILS LAKE    CLEAR     46  39  76 W8        29.81R
FARGO          MOCLDY    49  46  90 SW5       29.85R
WAHPETON ARPT  CLOUDY    45  43  93 CALM      29.86S
$$

 ***** WEATHER ACROSS CENTRAL AND WESTERN NORTH DAKOTA  *****

CITY           SKY/WX    TMP DP  RH WIND       PRES   REMARKS
BISMARCK       CLEAR     42  41  96 SW7       29.89S
MINOT          PTCLDY    46  40  79 SW9       29.80F
JAMESTOWN      PTCLDY    45  43  93 W5        29.85F
MINOT AFB      CLOUDY    46  43  89 SW12      29.79F
GARRISON         N/A     44  42  93 W6        29.84F
WILLISTON      MOCLDY    43  39  86 SW10      29.81F
DICKINSON      CLOUDY    43  38  82 S10       29.86F
HETTINGER      MOCLDY    38  35  89 CALM      29.93S
$$

 *****  OTHER AIRPORT OBSERVATIONS IN OUR AREA  *****

CITY           SKY/WX    TMP DP  RH WIND       PRES   REMARKS
WALHALLA         N/A     45  45 100 W6        29.79F
GRAFTON AIRPOR FAIR      46  46 100 SW6       29.80S
VALLEY CITY AR FAIR      46  46 100 W8        29.86S
CANDO          FAIR      37  37 100 W6        29.82R
CAVALIER APRT  FAIR      45  43  93 W7        29.79S
GWINNER          N/A     50  50 100 SW7       29.88S
SHEYENNE NWR     N/A     48  46  94 CALM      29.95S
ROLLA          FAIR      39  39 100 SW7       29.81S
 ***** THE ABOVE OBSERVATIONS ARE NON NWS ARE NOT QUALITY
       CONTROLLED AND MAY MIS-REPORT RAIN FOR SNOW...
$$

  *****  WEATHER ACROSS NORTHERN MINNESOTA  *****

CITY           SKY/WX    TMP DP  RH WIND       PRES   REMARKS
FLAG ISLAND    MOCLDY    50  46  87 W10       29.76S
WARROAD        CLOUDY    48  45  87 SW5       29.79S
ROSEAU         CLOUDY    48  45  87 SW6       29.80R
HALLOCK        MOCLDY    46  45  93 CALM      29.79F
THF RVR FALLS  CLOUDY    48  45  87 CALM      29.82R
BAUDETTE       MOCLDY    47  45  93 SW3       29.79R
WASKISH        CLOUDY    54  50  87 CALM      29.80S
CROOKSTON      CLOUDY    48  46  93 SW3       29.83S
STEPHEN NDAWN    N/A     46  46 100 S3          N/A
GREENBUSH NDAW   N/A     46  46 100 SW6         N/A
$$
  *****  WEATHER ACROSS CENTRAL AND WEST MINNESOTA  *****

CITY           SKY/WX    TMP DP  RH WIND       PRES   REMARKS
FOSSTON        MOCLDY    45  43  93 CALM      29.84R
BEMIDJI        CLOUDY    47  47  97 W7        29.82R
PARK RAPIDS    FOG       45  45 100 W7        29.83R VSB 3/4
ELBOW LAKE     FAIR      46  46  97 CALM      29.86S
WADENA         PTCLDY    46  46 100 W6        29.85R
DETROIT LAKES  MOCLDY    48  46  93 W6        29.86S
MOORHEAD       NOT AVBL
FERGUS FALLS   PTCLDY    46  46 100 CALM      29.87S
MORRIS MN      CLOUDY    46  46 100 NW6       29.86S
STAPLES        MOCLDY    43  43 100 CALM      29.84S FOG
$$
  *****  WEATHER ELSEWHERE ACROSS MINNESOTA  *****

CITY           SKY/WX    TMP DP  RH WIND       PRES   REMARKS
DULUTH         CLOUDY    53  50  89 CALM      29.84S FOG
INTRNTL FALLS  PTCLDY    50  49  96 S3        29.79S
ELY            CLOUDY    52  52 100 CALM      29.80F FOG
CLOQUET        CLOUDY    54  52  94 CALM      29.84R FOG
WHEATON        MOCLDY    48  46  93 W3        29.89R
BRAINERD       FOG       49  49 100 CALM      29.84S VSB<1/4
HIBBING        CLOUDY    54  51  90 S5        29.82R FOG
ALEXANDRIA     MOCLDY    50  48  93 NW8       29.87R
SAINT CLOUD    FOG       54  52  93 S3        29.85R VSB 1/2
MINNEAPOLIS    CLOUDY    59  56  89 N3        29.84S FOG
$$

  *****  WEATHER ACROSS SOUTH DAKOTA  *****

CITY           SKY/WX    TMP DP  RH WIND       PRES   REMARKS
SIOUX FALLS    RAIN      54  51  90 W3        29.90R FOG
BROOKINGS      NOT AVBL
WATERTOWN      CLOUDY    48  47  96 NE3       29.88S
HURON          CLOUDY    51  49  92 W3        29.89F
SISSETON         N/A     50  47  89 NW3       29.86S
ABERDEEN       CLOUDY    50  48  93 W3        29.89S
MITCHELL       LGT RAIN  53  51  93 W3        29.91F
PIERRE         PTCLDY    45  43  93 W8        29.93S
MOBRIDGE       CLEAR     42  40  92 CALM      29.90S
RAPID CITY     CLEAR     39  34  82 NW7       30.00S
$$

  *****  SOME WEATHER IN NEARBY STATES *****

CITY           SKY/WX    TMP DP  RH WIND       PRES   REMARKS
GLASGOW MT     CLOUDY    42  36  79 NW16G25   29.90R
GREAT FALLS MT LGT SNOW  34  32  93 NW17      30.07R FOG     WCI  23
CHEYENNE WY    CLEAR     34  28  79 W10       30.12R
SCOTTSBLUFF NE CLEAR     37  37 100 NW6       30.09S
OMAHA NE       CLOUDY    59  56  89 N14       29.79S
DES MOINES IA  FOG       65  63  93 SE8       29.79R VSB 1
DAVENPORT IA   NOT AVBL
CHICAGO IL     CLOUDY    64  60  87 SE8       29.87F
EAU CLAIRE WI  CLOUDY    56  55  97 CALM      29.84S FOG
LA CROSSE WI   CLOUDY    59  56  89 CALM      29.84S FOG
$$

  *****  SOME NATIONAL WEATHER *****

CITY           SKY/WX    TMP DP  RH WIND       PRES   REMARKS
LA GUARDIA NY  NOT AVBL
RALEIGH NC     MOSUNNY   67  64  90 CALM      30.12S FOG
ATLANTA GA     MOSUNNY   70  64  81 CALM      30.11R
NEW ORLEANS LA MOSUNNY   79  76  90 SE7       29.97R
OKLAHOMA CITY  PTCLDY    72  67  84 S8        29.74R
ALBUQUERQUE NM CLEAR     53  24  32 NW9       30.17R
SALT LAKE CITY PTCLDY    43  34  70 SE9       30.27R
LOS ANGELES CA CLEAR     65  59  81 CALM      29.91R
BOISE ID       CLEAR     46  34  62 SE9       30.17S
SEATTLE WA     PTCLDY    52  45  77 CALM      30.25R
$$

*** WEATHER ACROSS MANITOBA...SASKATCHEWAN AND ONTARIO ***
                ***ONTARIO***

CITY           SKY/WX    TMP DP  RH WIND       PRES   REMARKS
GERALDTON      DRIZZLE   52  52 100 SW15      29.83R FOG
THUNDER BAY    CLOUDY    52  52 100 CALM      29.83F
SIOUX LOOKOUT  NOT AVBL
TORONTO        CLOUDY    61  57  88 SE5       30.11R FOG
BIG TROUT LK   CLOUDY    54  48  82 W14G22    29.52R
PICKLE LAKE    MOCLDY    54  50  87 SW10      29.68R
DRYDEN         MOCLDY    52  50  93 SW8       29.76R
KENORA         MOCLDY    52  48  87 W7        29.77R
$$
                *** MANITOBA***

CITY           SKY/WX    TMP DP  RH WIND       PRES   REMARKS
BRANDON        PTCLDY    34  34 100 W3        29.78F
DAUPHIN        CLEAR     41  37  87 SW6       29.73S
ISLAND LAKE    LGT RAIN  46  46 100 W14       29.58R
PILOT MOUND      N/A     37  36  93 W3          N/A
THE PAS        PTCLDY    37  37 100 W6        29.67R
THOMPSON       LGT RAIN  43  41  93 W12       29.54R
WINNIPEG       PTCLDY    43  41  93 W8        29.78R
LYNN LAKE      LGT RAIN  37  37 100 W8G17     29.57S FOG
CHURCHILL      LGT RAIN  41  39  93 NW15G21   29.24S FOG
GILLAM         CLOUDY    45  43  93 W17G29    29.40R
$$
                ***SASKATCHEWAN***

CITY           SKY/WX    TMP DP  RH WIND       PRES   REMARKS
ESTEVAN        MOCLDY    43  41  93 S10       29.74F
KINDERSLEY     CLOUDY    34  28  80 NW21G32   29.95R WCI  22
LLOYDMINSTER   NOT AVBL
PRINCE ALBERT  CLOUDY    41  30  65 W17G24    29.74R
REGINA         LGT RAIN  43  41  93 NW22G29   29.80R
YORKTON        PTCLDY    39  37  93 SW2       29.72S
N. BATTLEFORD  MOCLDY    37  30  75 NW25G40   29.89R
LA RONGE       NOT AVBL
SASKATOON      NOT AVBL
SWIFT CURRENT  CLOUDY    34  28  80 NW26G36   29.92R WCI  21
$$
NOTE: THESE ARE AUTOMATED STATIONS WITH LIMITED QUALITY CONTROL
      "FAIR" INDICATES FEW OR NO CLOUDS BELOW 12,000 FEET WITH NO
      SIGNIFICANT WEATHER AND/OR OBSTRUCTIONS TO VISIBILITY.
      SKY/WX - SKY CONDITION AND SIGNIFICANT WEATHER.
      TMP - AIR TEMPERATURE.    DP   - DEWPOINT TEMPERATURE.
      RH  - RELATIVE HUMIDITY.  PRES - PRESSURE.
      HX  - HEAT INDEX.         WCI  - WIND CHILL INDEX.
$



USA.gov is the U.S. government's official web portal to all federal, state and local government web resources and services.